Starlink 32036

operational
NORAD ID: 60141 Int'l Des: 2024-120 Owner: SPXS Country: US Constellation: starlink
LEOCIRCULAR

About Starlink 32036

Description loading...

Live Position

Loading 3D Globe...

Upcoming Passes

Altitude History

Altitude vs Time

uPlot chart will show altitude changes over time

Two-Line Element Set

1 60141U 24120G 25351.26791770 -.00000419 00000-0 -20089-5 0 9996
2 60141 53.1623 343.0078 0001629 72.1190 287.9989 15.30200753 83837
Epoch: Dec 17, 2025 • Age: 28 hours

Current Status

Altitude 488.2 km
Velocity 7.62 km/s
Sub-Earth Point -37.97°S, 58.33°E
Launch Date Jun 27, 2024
Age 1.4 years
Type internet

Technical Details

Classification Payload
Mass 730.00 kg
Dry Mass 700.00 kg
Total Mass 730.00 kg
Length 0.30 m
Diameter 4.10 m
Span 29.00 m
Shape Box + pan
Manufacturer SPXS
Bus Type Starlink V2M
Phase Status In Orbit
Owner/State SPXS/US

Large Constellations

Loading constellations...